Weather History for Fargo, ND

Change the Weather History Date:

Monday, July 15, 2013

  Actual Average Record
Temperature  
Mean Temperature 71 °F 71 °F  
Max Temperature 76 °F 83 °F 102 °F (1931)
Min Temperature 65 °F 60 °F 41 °F (1912)
Degree Days  
Heating Degree Days 0 0  
Month to date heating degree days 0 12  
Since 1 June heating degree days 62 85  
Since 1 July heating degree days 0 12  
Cooling Degree Days 6 7  
Month to date cooling degree days 154 95  
Year to date cooling degree days 329 233  
Since 1 June cooling degree days 300 202  
Growing Degree Days 20 (Base 50)    
Moisture  
Dew Point 67 °F    
Average Humidity 84    
Maximum Humidity 93    
Minimum Humidity 74    
Precipitation  
Precipitation 0.20 in 0.09 in 4.42 in (1993)
Month to date precipitation 0.46 1.54  
Year to date precipitation 21.09 12.25  
Snow  
Snow 0.00 in 0.00 in 0.00 in ()
Month to date snowfall 0.0 0.0  
Since 1 June snowfall 0.0 0.0  
Since 1 July snowfall 0.0 0.0  
Snow Depth 0.00 in    
Sea Level Pressure  
Sea Level Pressure 30.15 in    
Wind  
Wind Speed 7 mph (ESE)    
Max Wind Speed 15 mph    
Max Gust Speed 20 mph    
Visibility 8 miles    
Events Rain    
T = Trace of Precipitation, MM = Missing Value Source: NWS Daily Summary

Daily Weather History Graph

Daily Weather History Graph

Search for Another Location

Airport:

Trip Planner

Search our weather history database for the weather conditions in past years. The results will help you decide how hot, cold, wet, or windy it might be!

Date:

Astronomy

Jul. 15, 2013 Rise Set
Actual Time 5:48 AM CDT 9:17 PM CDT
Civil Twilight 5:10 AM CDT 9:55 PM CDT
Nautical Twilight 4:19 AM CDT 10:45 PM CDT
Astronomical Twilight 3:13 AM CDT 11:51 PM CDT
Moon 1:41 PM CDT (7/15) 12:01 AM CDT (7/15)
Length of Visible Light 16h 45m
Length of Day
15h 29m
Waxing Crescent, 45% of the Moon is Illuminated
Jul 15
Waxing Crescent
Jul 15
First Quarter
Jul 22
Full
Jul 29
Last Quarter
Aug 6
New

Hourly Weather History & Observations

Time (CDT) Temp. Dew Point Humidity Pressure Visibility Wind Dir Wind Speed Gust Speed Precip Events Conditions
12:14 AM 73.4 °F 66.2 °F 78% 30.16 in 10.0 mi East 4.6 mph - N/A   Overcast
12:53 AM 71.1 °F 66.9 °F 87% 30.16 in 10.0 mi Calm Calm - N/A   Scattered Clouds
1:53 AM 70.0 °F 66.9 °F 90% 30.16 in 10.0 mi SE 5.8 mph - N/A   Clear
2:30 AM 69.8 °F 66.2 °F 88% 30.16 in 10.0 mi SE 8.1 mph - N/A   Mostly Cloudy
2:40 AM 69.8 °F 66.2 °F 88% 30.16 in 10.0 mi SE 8.1 mph - N/A   Scattered Clouds
2:53 AM 69.1 °F 64.9 °F 87% 30.15 in 10.0 mi SE 5.8 mph - N/A   Partly Cloudy
3:53 AM 68.0 °F 64.0 °F 87% 30.16 in 10.0 mi Calm Calm - N/A   Clear
4:53 AM 66.0 °F 64.0 °F 93% 30.16 in 8.0 mi Calm Calm - N/A   Partly Cloudy
5:07 AM 66.2 °F 62.6 °F 88% 30.16 in 8.0 mi Calm Calm - N/A   Mostly Cloudy
5:53 AM 66.9 °F 64.9 °F 93% 30.17 in 10.0 mi North 4.6 mph - N/A   Overcast
6:28 AM 66.2 °F 64.4 °F 94% 30.17 in 9.0 mi Calm Calm - N/A   Overcast
6:53 AM 68.0 °F 64.9 °F 90% 30.17 in 8.0 mi NE 3.5 mph - N/A   Partly Cloudy
7:12 AM 68.0 °F 64.4 °F 88% 30.17 in 9.0 mi ENE 4.6 mph - N/A   Scattered Clouds
7:27 AM 68.0 °F 64.4 °F 88% 30.18 in 9.0 mi NE 5.8 mph - N/A   Mostly Cloudy
7:46 AM 68.0 °F 64.4 °F 88% 30.18 in 9.0 mi ENE 5.8 mph - N/A   Overcast
7:53 AM 69.1 °F 64.9 °F 87% 30.17 in 9.0 mi ENE 5.8 mph - N/A   Overcast
8:00 AM 69.8 °F 64.4 °F 83% 30.18 in 9.0 mi NE 4.6 mph - N/A   Overcast
8:29 AM 69.8 °F 66.2 °F 88% 30.17 in 10.0 mi East 6.9 mph - N/A   Overcast
8:49 AM 69.8 °F 66.2 °F 88% 30.17 in 10.0 mi East 6.9 mph - N/A   Overcast
8:53 AM 70.0 °F 66.0 °F 87% 30.17 in 9.0 mi East 6.9 mph - N/A   Overcast
9:53 AM 72.0 °F 66.9 °F 84% 30.17 in 5.0 mi East 5.8 mph - 0.00 in Rain Light Rain
10:13 AM 71.6 °F 68.0 °F 88% 30.17 in 4.0 mi Calm Calm - 0.02 in Rain Light Rain
10:26 AM 71.6 °F 68.0 °F 88% 30.17 in 4.0 mi ESE 5.8 mph - 0.04 in Rain Light Rain
10:53 AM 72.0 °F 68.0 °F 87% 30.17 in 6.0 mi SE 6.9 mph - 0.04 in Rain Light Rain
11:15 AM 71.6 °F 68.0 °F 88% 30.17 in 2.5 mi SE 8.1 mph - 0.02 in Rain Light Rain
11:29 AM 71.6 °F 68.0 °F 88% 30.17 in 2.5 mi SE 5.8 mph - 0.03 in Rain Light Rain
11:53 AM 72.0 °F 68.0 °F 87% 30.17 in 2.5 mi SE 6.9 mph - 0.04 in Rain Light Rain
11:57 AM 71.6 °F 68.0 °F 88% 30.17 in 7.0 mi SE 8.1 mph - 0.00 in   Overcast
12:53 PM 73.0 °F 68.0 °F 84% 30.16 in 8.0 mi SSE 10.4 mph 18.4 mph 0.00 in   Overcast
1:53 PM 72.0 °F 66.9 °F 84% 30.16 in 7.0 mi South 11.5 mph - 0.00 in Rain Light Rain
2:33 PM 71.6 °F 68.0 °F 88% 30.16 in 5.0 mi SSE 12.7 mph 19.6 mph 0.05 in Rain Rain
2:53 PM 72.0 °F 68.0 °F 87% 30.15 in 4.0 mi SSE 9.2 mph - 0.08 in Rain Light Rain
3:05 PM 71.6 °F 69.8 °F 94% 30.15 in 6.0 mi SE 10.4 mph - 0.01 in Rain Light Rain
3:53 PM 72.0 °F 68.0 °F 87% 30.14 in 8.0 mi SE 8.1 mph - 0.01 in   Overcast
4:53 PM 73.0 °F 68.0 °F 84% 30.14 in 8.0 mi SSE 10.4 mph - 0.00 in Rain Light Rain
5:53 PM 72.0 °F 66.9 °F 84% 30.11 in 7.0 mi SE 9.2 mph - 0.00 in Rain Light Rain
6:53 PM 71.1 °F 68.0 °F 90% 30.08 in 6.0 mi East 4.6 mph - 0.03 in Rain Light Rain
7:53 PM 73.0 °F 69.1 °F 87% 30.06 in 5.0 mi ESE 10.4 mph - 0.00 in   Scattered Clouds
8:53 PM 75.0 °F 70.0 °F 84% 30.04 in 7.0 mi SE 8.1 mph - N/A   Scattered Clouds
9:53 PM 75.9 °F 68.0 °F 76% 30.05 in 10.0 mi SSE 12.7 mph - N/A   Clear
10:53 PM 75.0 °F 66.9 °F 76% 30.06 in 10.0 mi SSE 10.4 mph - N/A   Clear
11:53 PM 73.9 °F 66.9 °F 79% 30.06 in 10.0 mi SSE 10.4 mph - N/A   Clear